EDT,Max TemperatureF,Mean TemperatureF,Min TemperatureF,Max Dew PointF,MeanDew PointF,Min DewpointF,Max Humidity, Mean Humidity, Min Humidity, Max Sea Level PressureIn, Mean Sea Level PressureIn, Min Sea Level PressureIn, Max VisibilityMiles, Mean VisibilityMiles, Min VisibilityMiles, Max Wind SpeedMPH, Mean Wind SpeedMPH, Max Gust SpeedMPH,PrecipitationIn, CloudCover, Events, WindDirDegrees
2013-4-1,36,32,28,34,31,19,100,89,50,29.81,29.56,29.41,10,6,0,25,10,36,0.11,7,Fog-Snow,150
2013-4-2,28,20,12,20,10,2,75,66,46,29.60,29.52,29.42,10,8,1,26,15,39,T,7,Snow,255
2013-4-3,27,18,8,18,9,-2,76,64,51,29.77,29.64,29.55,10,9,2,30,17,40,T,6,Snow,275
2013-4-4,40,30,19,26,11,3,75,50,27,29.97,29.86,29.73,10,10,6,25,14,30,T,5,Snow,273
2013-4-5,38,32,25,31,28,19,96,84,70,29.83,29.70,29.63,10,5,0,18,8,25,0.03,8,Fog-Snow,252
2013-4-6,26,21,15,18,4,-1,75,52,34,30.25,29.97,29.73,10,10,10,31,18,40,0.00,1,,312
2013-4-7,36,25,13,29,13,0,85,58,45,30.27,30.07,29.82,10,9,2,23,11,32,T,6,Snow,162
2013-4-8,37,33,28,31,27,23,92,78,65,30.14,29.99,29.79,10,10,10,22,9,26,0.00,6,,337
2013-4-9,35,31,27,34,29,22,100,88,78,30.15,30.01,29.91,10,4,0,10,5,14,0.02,7,Fog-Snow,112
2013-4-10,41,36,31,34,28,14,100,79,48,29.92,29.88,29.82,10,8,0,22,10,26,0.00,7,Fog-Snow,312
2013-4-11,32,27,22,17,10,6,61,49,38,30.19,30.02,29.88,10,10,10,25,15,32,0.00,1,,316
2013-4-12,39,30,21,30,24,12,100,77,39,30.25,30.11,30.00,10,5,0,17,8,22,0.20,5,Fog-Snow,113
2013-4-13,39,30,21,32,30,28,100,91,81,30.00,29.88,29.81,10,4,1,17,8,22,0.20,8,Snow,82
2013-4-14,38,35,31,32,30,28,100,90,75,30.16,29.94,29.86,10,6,1,10,5,13,0.05,8,Snow,87
2013-4-15,47,38,29,31,28,22,100,77,40,30.36,30.27,30.18,10,7,0,10,3,14,0.00,4,Fog-Snow,186
2013-4-16,44,40,35,40,36,27,100,88,65,30.30,29.92,29.71,10,8,1,25,13,37,0.13,7,Rain,174
2013-4-17,43,36,29,39,25,17,93,62,37,30.34,30.01,29.76,10,9,2,28,16,37,0.00,2,Rain,306
2013-4-18,44,34,23,31,20,14,85,56,30,30.45,30.28,29.92,10,10,5,21,10,30,0.06,4,Rain,139
2013-4-19,65,52,39,54,41,25,88,67,54,29.88,29.69,29.45,10,10,10,22,14,30,0.00,5,,166
2013-4-20,57,44,30,55,39,24,100,84,48,30.00,29.61,29.44,10,8,1,26,13,37,0.29,8,Rain-Snow,234
2013-4-21,39,31,23,25,11,4,75,47,25,30.71,30.40,29.99,10,10,5,22,12,29,0.00,1,Snow,321
2013-4-22,50,36,21,17,11,5,55,36,20,30.81,30.71,30.61,10,10,10,16,7,20,0.00,0,,154
2013-4-23,53,41,29,30,18,9,69,42,18,30.61,30.46,30.28,10,10,10,22,11,25,0.00,2,,156
2013-4-24,56,48,39,50,42,30,100,85,65,30.26,29.96,29.70,10,7,0,18,9,24,0.03,8,Fog-Rain,123
2013-4-25,53,43,32,47,36,22,100,75,36,30.31,29.87,29.64,10,6,0,25,14,33,0.03,5,Fog-Rain,218
2013-4-26,56,41,26,25,21,13,81,48,20,30.47,30.42,30.33,10,10,10,12,5,18,0.00,0,,8
2013-4-27,60,45,30,26,21,16,75,41,18,30.43,30.36,30.27,10,10,10,13,4,17,0.00,0,,56
2013-4-28,65,49,33,27,24,22,64,37,20,30.32,30.27,30.20,10,10,10,14,5,21,0.00,0,,111
2013-4-29,69,55,40,32,27,24,58,37,19,30.27,30.21,30.17,10,10,10,15,8,18,0.00,0,,124
2013-4-30,71,56,41,40,30,26,63,39,20,30.34,30.29,30.24,10,10,10,14,7,20,0.00,0,,110